Satellite: CO-57
Catalog number: 27848
Epoch time:      09274.54520581
Element set:     629
Inclination:      098.7177 deg
RA of node:       281.2832 deg
Eccentricity:    0.0009328
Arg of perigee:   197.6826 deg
Mean anomaly:     162.4030 deg
Mean motion:   14.20457752 rev/day
Decay rate:        3.9e-07 rev/day^2
Epoch rev:           32432
Checksum:              326

Satellite: AO-51
Catalog number: 28375
Epoch time:      09274.57606866
Element set:     498
Inclination:      098.0546 deg
RA of node:       277.9941 deg
Eccentricity:    0.0083501
Arg of perigee:   161.5603 deg
Mean anomaly:     198.8643 deg
Mean motion:   14.40653454 rev/day
Decay rate:        4.0e-08 rev/day^2
Epoch rev:           27627
Checksum:              343

Satellite: CO-56
Catalog number: 28941
Epoch time:      09274.50089293
Element set:     491
Inclination:      098.1279 deg
RA of node:       110.2710 deg
Eccentricity:    0.0043417
Arg of perigee:   083.9365 deg
Mean anomaly:     276.6848 deg
Mean motion:   16.04548000 rev/day
Decay rate:    2.73186e-03 rev/day^2
Epoch rev:           20416
Checksum:              324

Satellite: GENESAT1
Catalog number: 29655
Epoch time:      09273.93026956
Element set:    0825
Inclination:      040.0196 deg
RA of node:       239.7123 deg
Eccentricity:    0.0003554
Arg of perigee:   243.4571 deg
Mean anomaly:     116.5908 deg
Mean motion:   15.67861063 rev/day
Decay rate:     1.9032e-04 rev/day^2
Epoch rev:           15906
Checksum:              310

Satellite: CP3
Catalog number: 31129
Epoch time:      09274.69784829
Element set:     230
Inclination:      097.9774 deg
RA of node:       322.6131 deg
Eccentricity:    0.0101811
Arg of perigee:   315.8717 deg
Mean anomaly:     043.4391 deg
Mean motion:   14.52164655 rev/day
Decay rate:        4.0e-07 rev/day^2
Epoch rev:           13034
Checksum:              292

Satellite: CO-65
Catalog number: 32785
Epoch time:      09273.82516304
Element set:    0492
Inclination:      097.9344 deg
RA of node:       336.8582 deg
Eccentricity:    0.0015962
Arg of perigee:   050.3557 deg
Mean anomaly:     309.9060 deg
Mean motion:   14.81522991 rev/day
Decay rate:       3.90e-06 rev/day^2
Epoch rev:           07708
Checksum:              333

Satellite: KKS-1
Catalog number: 33493
Epoch time:      09274.86946466
Element set:     805
Inclination:      098.0647 deg
RA of node:       027.5955 deg
Eccentricity:    0.0018834
Arg of perigee:   256.1800 deg
Mean anomaly:     103.7320 deg
Mean motion:   14.80737184 rev/day
Decay rate:       2.93e-06 rev/day^2
Epoch rev:            3725
Checksum:              320

Satellite: SOHLA-1
Catalog number: 33496
Epoch time:      09274.88559506
Element set:     770
Inclination:      098.0442 deg
RA of node:       022.5691 deg
Eccentricity:    0.0005823
Arg of perigee:   313.4563 deg
Mean anomaly:     046.6158 deg
Mean motion:   14.69448143 rev/day
Decay rate:        3.2e-07 rev/day^2
Epoch rev:            3694
Checksum:              315

/EX
SB KEPS @ AMSAT  $ORB09274.W
Orbital Elements  09274.WEATHER

HR AMSAT ORBITAL ELEMENTS FOR WEATHER SATELLITES
FROM WA5QGD FORT WORTH,TX October 1, 2009
Send Subscribe/unsubscribe to KEPS at 
http://www.amsat.org/mailman/listinfo/keps
BID: ORB09274.W
TO ALL RADIO AMATEURS BT

Satellite: NOAA-10
Catalog number: 16969
Epoch time:      09273.93447681
Element set:    0780
Inclination:      098.6864 deg
RA of node:       299.9777 deg
Eccentricity:    0.0011524
Arg of perigee:   247.6884 deg
Mean anomaly:     112.3052 deg
Mean motion:   14.27395201 rev/day
Decay rate:        2.3e-07 rev/day^2
Epoch rev:           19859
Checksum:              349

Satellite: NOAA-11
Catalog number: 19531
Epoch time:      09273.78623590
Element set:    0799
Inclination:      098.7817 deg
RA of node:       002.0953 deg
Eccentricity:    0.0011667
Arg of perigee:   164.2029 deg
Mean anomaly:     195.9493 deg
Mean motion:   14.14904563 rev/day
Decay rate:       1.30e-06 rev/day^2
Epoch rev:           08445
Checksum:              323

Satellite: NOAA-12
Catalog number: 21263
Epoch time:      09273.94804351
Element set:    0301
Inclination:      098.7752 deg
RA of node:       282.0706 deg
Eccentricity:    0.0011793
Arg of perigee:   195.7247 deg
Mean anomaly:     164.3569 deg
Mean motion:   14.25594900 rev/day
Decay rate:        1.5e-07 rev/day^2
Epoch rev:           95546
Checksum:              314

Satellite: MET-3/5
Catalog number: 21655
Epoch time:      09274.58187751
Element set:     661
Inclination:      082.5544 deg
RA of node:       131.3553 deg
Eccentricity:    0.0012631
Arg of perigee:   278.0233 deg
Mean anomaly:     081.9456 deg
Mean motion:   13.17020654 rev/day
Decay rate:        5.1e-07 rev/day^2
Epoch rev:           87163
Checksum:              295

Satellite: MET-2/21
Catalog number: 22782
Epoch time:      09274.62537546
Element set:     579
Inclination:      082.5432 deg
RA of node:       097.5821 deg
Eccentricity:    0.0023661
Arg of perigee:   050.1928 deg
Mean anomaly:     310.1286 deg
Mean motion:   13.83638198 rev/day
Decay rate:       -2.6e-07 rev/day^2
Epoch rev:           81232
Checksum:              313

